Weather History for Atlanta Fulton, GA

Change the Weather History Date:

Wednesday, July 24, 2013

  Actual Average Record
Temperature  
Mean Temperature 78 °F 80 °F  
Max Temperature 85 °F 90 °F 96 °F (2004)
Min Temperature 71 °F 71 °F 63 °F (2003)
Cooling Degree Days 13 15  
Month to date cooling degree days 315 354  
Year to date cooling degree days 852 904  
Since 1 June cooling degree days 689 704  
Growing Degree Days 28 (Base 50)    
Moisture  
Dew Point 70 °F    
Average Humidity 79    
Maximum Humidity 93    
Minimum Humidity 65    
Precipitation  
Precipitation 0.00 in 0.13 in 2.10 in (2014)
Month to date precipitation 12.67 4.28  
Year to date precipitation 29.22 29.90  
Sea Level Pressure  
Sea Level Pressure 29.87 in    
Wind  
Wind Speed 4 mph (WNW)    
Max Wind Speed 10 mph    
Max Gust Speed 13 mph    
Visibility 10 miles    
Events      
T = Trace of Precipitation, MM = Missing Value Source: NWS Daily Summary

Daily Weather History Graph

Daily Weather History Graph

Search for Another Location

Airport:

Trip Planner

Search our weather history database for the weather conditions in past years. The results will help you decide how hot, cold, wet, or windy it might be!

Date:

Astronomy

Jul. 24, 2013 Rise Set
Actual Time 6:44 AM EDT 8:44 PM EDT
Civil Twilight 6:16 AM EDT 9:12 PM EDT
Nautical Twilight 5:42 AM EDT 9:45 PM EDT
Astronomical Twilight 5:06 AM EDT 10:21 PM EDT
Moon 10:00 PM EDT (7/24) 8:54 AM EDT (7/24)
Length of Visible Light 14h 55m
Length of Day
13h 59m
Waning Gibbous, 95% of the Moon is Illuminated
Jul 24
Waning Gibbous
Jul 29
Last Quarter
Aug 6
New
Aug 14
First Quarter
Aug 20
Full

Hourly Weather History & Observations

Time (EDT) Temp. Heat Index Dew Point Humidity Pressure Visibility Wind Dir Wind Speed Gust Speed Precip Events Conditions
12:53 AM 71.1 °F - 69.1 °F 93% 29.88 in 10.0 mi West 3.5 mph - N/A   Scattered Clouds
1:53 AM 71.1 °F - 68.0 °F 90% 29.86 in 10.0 mi West 6.9 mph - N/A   Scattered Clouds
1:55 AM 71.6 °F - 68.0 °F 88% 29.89 in 10.0 mi WNW 6.9 mph - N/A   Overcast
2:53 AM 71.1 °F - 68.0 °F 90% 29.85 in 10.0 mi WNW 5.8 mph - N/A   Overcast
3:53 AM 71.1 °F - 68.0 °F 90% 29.85 in 10.0 mi Calm Calm - N/A   Overcast
4:53 AM 72.0 °F - 69.1 °F 91% 29.85 in 10.0 mi WNW 5.8 mph - N/A   Overcast
5:43 AM 71.6 °F - 69.8 °F 94% 29.87 in 9.0 mi Calm Calm - N/A   Mostly Cloudy
5:53 AM 72.0 °F - 69.1 °F 91% 29.85 in 9.0 mi Calm Calm - N/A   Mostly Cloudy
6:53 AM 72.0 °F - 69.1 °F 91% 29.86 in 9.0 mi SW 3.5 mph - N/A   Overcast
7:53 AM 73.0 °F - 69.1 °F 87% 29.87 in 10.0 mi West 4.6 mph - N/A   Overcast
8:45 AM 73.4 °F - 69.8 °F 88% 29.88 in 10.0 mi Calm Calm - N/A   Scattered Clouds
8:53 AM 75.0 °F - 69.1 °F 82% 29.86 in 10.0 mi West 3.5 mph - N/A   Scattered Clouds
9:10 AM 75.2 °F - 69.8 °F 83% 29.89 in 10.0 mi NW 5.8 mph - N/A   Mostly Cloudy
9:41 AM 75.2 °F - 69.8 °F 83% 29.91 in 10.0 mi WNW 9.2 mph - N/A   Overcast
9:53 AM 75.9 °F - 70.0 °F 82% 29.89 in 10.0 mi WNW 5.8 mph - N/A   Overcast
10:53 AM 75.9 °F - 69.1 °F 79% 29.89 in 10.0 mi WNW 5.8 mph - N/A   Overcast
11:53 AM 79.0 °F - 70.0 °F 74% 29.89 in 10.0 mi West 4.6 mph - N/A   Scattered Clouds
12:10 PM 78.8 °F - 71.6 °F 78% 29.92 in 10.0 mi WSW 4.6 mph - N/A   Mostly Cloudy
12:34 PM 80.6 °F 83.9 °F 69.8 °F 70% 29.92 in 10.0 mi NW 5.8 mph - N/A   Scattered Clouds
12:53 PM 81.0 °F 84.9 °F 71.1 °F 72% 29.89 in 10.0 mi West 6.9 mph - N/A   Scattered Clouds
1:22 PM 80.6 °F 84.6 °F 71.6 °F 74% 29.91 in 10.0 mi NNW 8.1 mph - N/A   Mostly Cloudy
1:51 PM 82.4 °F 87.2 °F 71.6 °F 70% 29.90 in 10.0 mi WNW 6.9 mph - N/A   Mostly Cloudy
1:53 PM 82.0 °F 86.3 °F 71.1 °F 69% 29.87 in 10.0 mi NW 6.9 mph - N/A   Mostly Cloudy
2:53 PM 82.0 °F 86.3 °F 71.1 °F 69% 29.86 in 10.0 mi WNW 8.1 mph - N/A   Scattered Clouds
3:53 PM 82.9 °F 87.0 °F 70.0 °F 65% 29.84 in 10.0 mi WNW 5.8 mph - N/A   Scattered Clouds
4:53 PM 84.0 °F 89.0 °F 71.1 °F 65% 29.81 in 10.0 mi North 4.6 mph - N/A   Clear
5:53 PM 82.9 °F 88.0 °F 72.0 °F 69% 29.81 in 10.0 mi WNW 6.9 mph - N/A   Clear
6:53 PM 82.0 °F 86.3 °F 71.1 °F 69% 29.83 in 10.0 mi NW 6.9 mph - N/A   Clear
7:53 PM 80.1 °F 83.8 °F 72.0 °F 76% 29.84 in 10.0 mi Calm Calm - N/A   Clear
8:53 PM 79.0 °F - 72.0 °F 79% 29.84 in 9.0 mi West 4.6 mph - N/A   Clear
9:53 PM 78.1 °F - 72.0 °F 81% 29.85 in 9.0 mi WSW 4.6 mph - N/A   Clear
10:53 PM 77.0 °F - 72.0 °F 84% 29.86 in 8.0 mi West 4.6 mph - N/A   Clear
11:53 PM 75.9 °F - 72.0 °F 87% 29.86 in 8.0 mi Calm Calm - N/A   Clear